Погода в Светлограде

Погода в Светлограде : погода сейчас, прогноз погоды и архив. Всё, что Вы хотите узнать о погоде в Светлограде!

Хотите узнать прогноз погоды в Светлограде? Тогда Вам сюда: Погода в Светлограде

Поиск расширенной информации на нашем сайте:

Другие новости

Новости СМИ2

Главная страница сайта

Новости сайта

02.10.2013

Напоминаем, что на нашем новом сайте вы можете получить высокодетализированные прогнозы погоды по пунктам России, СНГ и мира (включающие важные для авиации метеовеличины, такие как направление и скорость ветра, видимость, явления погоды, количество и форма облачности, нижняя и верхняя граница облачности), а также ознакомиться с разнообразными материалами по авиационной метеорологии и подборкой полезных ссылок на эту тему.

Сайт Метеоцентр.Азия посвящён разработке технологий оптимизации авиаметеорологического обслуживания, включая проектирование и перспективное создание нескольких автоматизированных авиаметеорологических систем:
- система выпуска высокодетальных прогностических карт явлений погоды для нижнего воздушного пространства по России и ближнему зарубежью;
- система верификации прогнозов TAF (выпускаемых синоптиками официальных АМСГ РФ и ближнего зарубежья) и AUTOTAF (выпускаемых сайтом Метеоцентр.Азия) - выявление ошибок, онлайн-сопоставление с фактической погодой METAR, автоматическое внесение коррективов в прогнозы при резком отклонении фактической погоды от прогноза, подсчёт оправдываемости прогнозов по элементам и в целом;
- система обработки, анализа и отображения авиаметеорологической информации для применения провайдерами метеорологической информации.


Погода в Светлограде - сегодня

Время (UTC), дата Ветер
(°,м/с) 
Видим.   Явления Облачность Т
(°С)
Тd
(°С)
f(%) Тe
(°С)
Pmin
(гПа)
dP
(гПа)
Po
(мм)
O2
(г/м3)
Тmin Tmax R s Состояние
почвы
09 26.04.17 100 (В) 20000 м    ясно 
+15.4 -0.8 33 +16  1030.7  -1.2  760  290           
12 26.04.17 100 (В) 4{10}  20000 м    ясно 
+16.8 -1.2 29 +17  1029.3  -1.3  759  288           
15 26.04.17 090 (В) 20000 м    ясно 
+15.7 -0.9 32 +16  1028.3  -1  759  289    +17.3       
18 26.04.17 тихо ()   20000 м    ясно 
+8.3 +0.8 59 +8  1029.1  0.3  759  297           
21 26.04.17 130 (ЮВ) 20000 м    ясно 
+8.6 -1.7 48 +9  1029  -0.1  759  297           
00 27.04.17 130 (ЮВ) 20000 м    ясно 
+5.5 -1.3 62 +5  1028.1  -0.1  758  299           
03 27.04.17 110 (В) 20000 м    ясно 
+5.1 +1.1 75 +5  1028  -0.1  758  300  +4.4        сухая 
06 27.04.17 110 (В) 4{10}  20000 м    ясно 
+10.9 +2.7 57 +10  1027.5  0.1  758  293           
09 27.04.17 100 (В) 4{10}  20000 м    ясно 
+17.1 +2.4 37 +17  1026.1  -1.1  757  287           
12 27.04.17 100 (В) 4-10{13}  20000 м    ясно 
+20.2 -0.8 24 +20  1026.1  -1.1  757  284           
15 27.04.17 100 (В) 3-10{11}  20000 м    ясно 
+18.6 -1.9 25 +19  1023.1  -1.1  755  285    +20.2       
18 27.04.17 080 (В) 1{10}  20000 м    ясно 
+13.2 +2.5 48 +14  1024.3  0.9  755  290           
21 27.04.17 090 (В) 20000 м    ясно 
+9.6 +2.6 62 +9  1023.5  -1  755  293           
00 28.04.17 110 (В) 20000 м    ясно 
+7.2 +2.5 72 +7  1022  -1.6  753  295           
03 28.04.17 060 (СВ) 20000 м    ясно 
+5.1 +2.9 86 +6  1021.5  -1.6  753  297  +3.9        сухая 
06 28.04.17 090 (В) 20000 м    ясно 
+14.4 +4.2 50 +16  1020.2  -0.8  752  287           
09 28.04.17 130 (ЮВ) 20000 м    ясно 
+20.1 +3.4 33 +20  1018.8  -1  752  282           
12 28.04.17 180 (Ю) 20000 м    ясно 
+23.2 +5.2 31 +23  1017.8  -1  751  278           
15 28.04.17 080 (В) 20000 м    ясно 
+22.5 +4.6 31 +23  1017.2  -0.6  751  279    +23.7       
18 28.04.17 120 (ЮВ) 20000 м    ясно 
+14.5 +6.4 58 +16  1018.3  0.6  751  286           
21 28.04.17 180 (Ю) 20000 м    ясно 
+11.3 +7.1 75 +12  1019  0.6  752  290           
00 29.04.17 тихо ()   20000 м    ясно 
+6.9 +5.9 93 +7  1019.3  752  294           
03 29.04.17 тихо ()   20000 м    ясно 
+6.1 +5.6 97 +6  1019.5  0.1  752  295  +5.2        сухая 
06 29.04.17 280 (З) 20000 м    3/3 1000 м 
[Sc]
+17.3 +8.3 55 +19  1018.8  0.1  752  283           
09 29.04.17 340 (С) 20000 м    ясно 
+23.6 +4.9 30 +24  1017.6  -0.9  751  278           
Время (UTC), дата Ветер
(°,м/с) 
Видим.   Явления Облачность Т
(°С)
Тd
(°С)
f(%) Тe
(°С)
Pmin
(гПа)
dP
(гПа)
Po
(мм)
O2
(г/м3)
Тmin Tmax R s Состояние
почвы

Для получения пояснительной информации подведите курсор к названию столбца.

ПОГОДА в Светлограде - архив

Всё, что Вы хотите узнать о погоде в Светлограде - удобно и подробно!

Выберите нужную дату (начиная с 1 января 2015* года) и нажмите кнопку "Найти".
Будут отображены архивные сводки погоды по пункту Светлоград, начиная с указанной даты.


Отображать данные в формате CSV (для использования в таблицах Excel)


Внимание! Наш архив погоды предназначен исключительно для личного некоммерческого использования в познавательных целях. Если Вам необходимы официальные справки о состоянии погоды (для производственных, юридических, коммерческих и т.п. целей), обращайтесь в органы Росгидромета.

*Примечание: данная дата относится к архиву по метеостанциям СССР (Россия, СНГ, Балтия).
Архив по метеостанциям Зарубежной Европы и Азии (кроме Китая) хранится 10 дней, по другим регионам земного шара (Китай, Африка, Америка, Австралия, Океания) - 1 день.

Светлоград - район местоположения метеостанции


Название, широта, долгота, высота метеостанции:
Светлоград 45.3°ш. 42.9°д. 140 м над ур. моря [Российская Федерация]

Дополнительная информация

В oтличие oт бoльшинства пoгoдных сайтoв мы публикуем пoдрoбную метеoинфoрмацию в детальнoм прoфессиoнальнoм фoрмате.

Характеристики температуры и влажнoсти вoздуха измеряются на высoте 2 м в тени вдали oт зданий и деревьев.
Скoрoсть ветра измеряется на высoте 10 м (на урoвне рoста челoвека скoрoсть ветра ниже в 1.5-2 раза). Если метеoстанция нахoдится в гoрoде или в лесу, тo скoрoсть ветра занижена на 2-4 м/с пo сравнению с oткрытым местoм. Скoрoсть ветра над акватoриями крупных рек и oзёр, а также на вершинах хoлмoв на 2-5 м/с выше, чем в oбычных услoвиях.
Атмoсфернoе давление в разных тoчках местнoсти мoжет значительнo oтличаться oт давления на метеoстанции, в зависимoсти oт услoвий рельефа (при пoдъёме на 10 м давление пoнижается примернo на 1 мм рт.ст.).